Regional Weather Roundup
Issued by NWS Upton, NY

Current Version | Previous Version | Graphics & Text | Print | Product List | Glossary Off
Versions: 1 2 3 4 5 6 7 8 9 10 11 12 13 14 15 16 17 18 19 20 21 22 23 24 25 26 27 28 29 30 31 32 33 34 35 36 37 38 39 40 41 42 43 44 45 46 47 48 49 50

000
ASUS41 KOKX 200705
RWROKX
REGIONAL WEATHER ROUNDUP
NATIONAL WEATHER SERVICE NEW YORK NY
300 AM EDT MON OCT 20 2014

NOTE: "FAIR" INDICATES FEW OR NO CLOUDS BELOW 12,000 FEET WITH NO
SIGNIFICANT WEATHER AND/OR OBSTRUCTIONS TO VISIBILITY.

NYZ071-072-176-178-NJZ106-104-200800-
NEW YORK CITY METRO AREA


CITY           SKY/WX    TMP DP  RH WIND       PRES   REMARKS
CENTRAL PARK   FAIR      42  28  57 VRB3      30.10R
LAGUARDIA APRT FAIR      44  28  53 W9        30.08R
KENNEDY INTL   FAIR      42  27  55 NW7       30.09R
NEWARK/LIBERTY MOCLDY    41  29  62 SW8       30.10R
BRNX BOT. GARD   N/A    N/A N/A N/A CALM      30.08F
TETERBORO      FAIR      38  28  67 SW5       30.08R WCI  34
$$

NYZ177-179-078>081-200800-
LONG ISLAND NEW YORK

CITY           SKY/WX    TMP DP  RH WIND       PRES   REMARKS
FARMINGDALE    FAIR      39  28  64 S3        30.08R
ISLIP          FAIR      38  29  70 SW3       30.06R
SHIRLEY        NOT AVBL
WESTHAMPTON    FAIR      33  24  69 CALM      30.08R
MONTAUK POINT    N/A     44  28  53 NW9       30.05R
$$

NYZ052-065-067-200800-
HUDSON VALLEY

CITY           SKY/WX    TMP DP  RH WIND       PRES   REMARKS
WHITE PLAINS   FAIR      37  30  75 CALM      30.04R
NEWBURGH       CLEAR     37  30  75 N6        30.05F WCI  33
MONTGOMERY     FAIR      37  28  70 W8        30.04F WCI  31
POUGHKEEPSIE   FAIR      33  30  88 CALM      30.05F
ALBANY         CLOUDY    36  30  79 CALM      30.04S
$$

NJZ001-105-106-008-010-013-015-019>022-104-200800-
NEW JERSEY

CITY           SKY/WX    TMP DP  RH WIND       PRES   REMARKS
NEWARK/LIBERTY MOCLDY    41  29  62 SW8       30.10R
TETERBORO      FAIR      38  28  67 SW5       30.08R WCI  34
CALDWELL       FAIR      37  29  72 S3        30.09R
MORRISTOWN     FAIR      37  32  81 CALM      30.09R
SOMERVILLE     FAIR      33  30  88 CALM      30.09R
SUSSEX         FAIR      36  31  82 CALM      30.07R
ANDOVER          N/A     35  30  82 CALM      30.08R
TRENTON        FAIR      35  30  82 CALM      30.09R
MILLVILLE      FAIR      35  33  92 CALM      30.11R
ATLANTIC CITY  FAIR      33  30  88 CALM      30.12R
WRIGHTSTOWN    FAIR      34  31  88 S1        30.09R
TOMS RIVER     FAIR      30  27  86 CALM      30.11R
BELMAR         FAIR      37  27  65 W3        30.09R
$$

PAZ047>061-062-071-200800-
EASTERN PENNSYLVANIA

CITY           SKY/WX    TMP DP  RH WIND       PRES   REMARKS
PHILADELPHIA   FAIR      42  32  67 NW5       30.12R
ALLENTOWN      FAIR      38  32  79 CALM      30.09R
SCRANTON       FAIR      34  29  82 CALM      30.05F
$$

CTZ002-004>006-009-010-012-RIZ004-006-007-MAZ004-011-015-200800-
SOUTHERN NEW ENGLAND
 IN CT

CITY           SKY/WX    TMP DP  RH WIND       PRES   REMARKS
BRADLEY INTL   FAIR      35  27  72 S3        30.02R
HARTFORD       FAIR      39  26  59 VRB5      30.04R
DANBURY        FAIR      34  29  82 CALM      30.05S
WTRBRY/OXFORD  FAIR      32  25  74 CALM      30.05R
BRIDGEPORT     FAIR      40  30  67 NW3       30.06S
MERIDEN        FAIR      32  29  88 S3        30.05R
NEW HAVEN      FAIR      45  30  55 VRB6      30.06R
CHESTER        FAIR      37  28  70 CALM      30.04R
GROTON         FAIR      37  28  70 NW6       30.04R WCI  32
WILLIMANTIC    FAIR      34  29  82 CALM      30.03R

 IN RI

CITY           SKY/WX    TMP DP  RH WIND       PRES   REMARKS
PROVIDENCE     FAIR      37  28  70 W6        30.03R WCI  32
BLOCK ISLAND   FAIR      43  25  49 N12G17    30.03R
WESTERLY       FAIR      36  29  75 W3        30.04R

 IN MA

CITY           SKY/WX    TMP DP  RH WIND       PRES   REMARKS
BOSTON         MOCLDY    41  25  53 W15       29.99R
WORCESTER      FAIR      34  25  69 W7        29.98R WCI  28
WESTFIELD      FAIR      32  29  88 CALM      30.02R
PROVINCETOWN   FAIR      45  27  49 NW16G23   29.97R
NANTUCKET      FAIR      46  31  55 NW12      29.97R
$$

ANZ330-335-338-340-345-350-353-355-200800-
COASTAL MARINE OBSERVATIONS


STATION/POSITION TIME  SKY/WX   TEMP    WIND        PRES    VSBY  WAVE
                                AIR SEA DIR/SP/G                  HT/PER
                 (UTC)          (F)     (DEG/KT/KT) (MB)    (MI)  (FT/S)
NY HARB ENTRANCE NOT AVBL
4S FIRE IS       0700               64                N/A           2/11
20S FIRE ISLAND  0700            48 64  330/ 12/ 16 1018.5          3/11
23SW MTP         0700                                 N/A           5/ 5
HUDSON CANYON    0700            51 66  320/ 17/ 21 1017.7          6/ 6
EXECUTION ROCKS  0700            46 64  310/  6/ 12   N/A
WESTERN LI SOUND 0700            46     320/  8/ 12   N/A           0
CENTRAL LI SOUND 0600            45 64  310/ 14/ 19   N/A           2/ 3
EASTERN LI SOUND 0600            45 64  320/ 12/ 16   N/A
ROBBINS REEF     0700            44     260/  9/ 11 1017.7
$$


>>>>>>>>>>>>>>>>>>>>>>>>>>>> KEY <<<<<<<<<<<<<<<<<<<<<<<<<<<
>                                                          <
>     SKY/WX - SKY CONDITION/PRESENT WEATHER               <
>     TMP    - TEMPERATURE IN FAHRENHEIT                   <
>     DP     - DEWPOINT IN FAHRENHEIT                      <
>     RH     - RELATIVE HUMIDITY IN PERCENT                <
>     WIND   - DIRECTION AND SPEED IN MPH                  <
>     PRES   - MEAN SEA LEVEL PRESSURE IN INCHES OF HG     <
>     WCI    - WIND CHILL INDEX                            <
>     VSB    - VISIBILITY IN MILES                         <
>     HX     - HEAT INDEX                                  <
>     TC     - TEMPERATURE IN CELSIUS                      <
>     VRB    - VARIABLE WIND DIRECTION                     <
>                                                          <
>>>>>>>>>>>>>>>>>>>>>>>>>>>> KEY <<<<<<<<<<<<<<<<<<<<<<<<<<<




USA.gov is the U.S. government's official web portal to all federal, state and local government web resources and services.